Location: ???? ?????????
(31.1304°N, 31.7111°E)
Time: 11:25:57
(UTC+00:00)

GPS 2-04 Rocket1 - Pass Details

Date: 29 October 2020
Orbit: 418 x 546 km, 35.6° (Epoch: 26 November)

Event Time Altitude Azimuth Distance (km) Brightness Sun altitude
Rises 15:38:52 0° 252° (WSW) 2,584 8.7 -7.5°
Reaches altitude 10° 15:41:03 10° 254° (WSW) 1,723 7.1 -7.9°
Maximum altitude 15:45:01 82° 341° (NNW) 532 2.7 -8.8°
Enters shadow 15:48:45 13° 70° (ENE) 1,629 4.6 -9.6°
